Regional Weather Roundup
Issued by NWS Jackson, KY

Home | Current Version | Previous Version | Text Only | Print | Product List | Glossary On
Versions: 1 2 3 4 5 6 7 8 9 10 11 12 13 14 15 16 17 18 19 20 21 22 23 24 25 26 27 28 29 30 31 32 33 34 35 36 37 38 39 40 41 42 43 44 45 46 47 48 49 50
000
ASUS43 KJKL 020819
RWRJKL

EAST KENTUCKY HOURLY WEATHER ROUNDUP
NATIONAL WEATHER SERVICE JACKSON KY
400 AM EDT SAT AUG 02 2014

NOTE: "FAIR" INDICATES FEW OR NO CLOUDS BELOW 12,000 FEET WITH
NO SIGNIFICANT WEATHER AND/OR OBSTRUCTIONS TO VISIBILITY.

* THESE REPORTS ARE NOT UNDER NWS QUALITY CONTROL AND MAY NOT
  REPORT WEATHER SUCH AS PRECIPITATION AND FOG.

KYZ079-080-083-085-087-088-110-112-115-119-120-020900
...EASTERN KENTUCKY...

CITY           SKY/WX    TMP DP  RH WIND       PRES   REMARKS
JACKSON        CLOUDY    66  62  87 S3        30.07F
LONDON         MOCLDY    67  64  90 CALM      30.08S
SOMERSET*      CLEAR     64  64 100 CALM      30.08S
MONTICELLO*    PTCLDY    64  64 100 CALM      30.08F FOG
WILLIAMSBURG*    N/A     66  66 100 CALM      30.08S
MIDDLESBORO*   LGT RAIN  69  60  74 S3        30.10S
HARLAN APT*    MOSUNNY   66  59  77 MISG      30.10F
HAZARD APT*    MOSUNNY   64  64 100 CALM      30.08S
BLACK MTN*       N/A     59  57  94 S3          N/A
PIKEVILLE APT* MOCLDY    64  57  77 SE6       30.09S
BIG SANDY*     PTSUNNY   65  59  82 SE5       30.08S
MOREHEAD APT*  PTSUNNY   64  64 100 CALM      30.09R FOG
ASHLAND*       MOCLDY    68  61  77 SE3       30.05R
$$

KYZ035-036-041-042-044-050-067-078-099-020900
...CENTRAL KENTUCKY...

CITY           SKY/WX    TMP DP  RH WIND       PRES   REMARKS
MT STERLING*   MOCLDY    63  63 100 CALM      30.08S FOG
FLEMING/MASON* CLOUDY    64  63  94 SE5       30.08R
DANVILLE*      CLEAR     61  61 100 CALM      30.08R
RICHMOND*      MOCLDY    64  63  94 CALM      30.06S
LEXINGTON      PTCLDY    65  61  87 S3        30.06F
FRANKFORT      CLEAR     63  61  93 CALM      30.05S
$$

KYZ091>093-OHZ055-061-077-WVZ005-015-034-035-042-020900
...SOUTHERN OHIO/WEST VIRGINIA...

CITY           SKY/WX    TMP DP  RH WIND       PRES   REMARKS
COVINGTON      MOCLDY    68  60  75 CALM      30.06F THUNDER
COLUMBUS       CLEAR     70  62  76 CALM      30.06F
DAYTON         CLOUDY    65  60  84 N7        30.08F
WILMINGTON     CLEAR     65  61  87 NW7       30.07S
HUNTINGTON     PTCLDY    64  62  93 E3        30.06S
CHARLESTON     PTCLDY    61  61 100 CALM      30.08F
PINEVILLE*     CLEAR     58  58 100 MISG      30.18S
BECKLEY        PTCLDY    61  55  81 SE8       30.15F
BLUEFIELD      CLOUDY    63  58  83 VRB5      30.18S
$$

VAZ002-007-008-TNZ017-027-036-066-071-020900
...SOUTHWEST VIRGINIA/EAST TENNESSEE...

CITY           SKY/WX    TMP DP  RH WIND       PRES   REMARKS
WISE*          PTCLDY    61  55  82 S6        30.16S
JONESVILLE*      N/A     64  63  94 CALM      30.12S
ABINGDON*      CLEAR     63  60  88 E7        30.14S
BRISTOL        MOCLDY    62  57  83 CALM      30.11S
KNOXVILLE      LGT RAIN  69  67  93 NE3       30.07S
OAK RIDGE      CLOUDY    69  67  93 E3        30.08F
CROSSVILLE     CLOUDY    70  64  81 CALM      30.11S
NASHVILLE      MOCLDY    73  67  81 CALM      30.04S
$$

...KEY TO REMARKS...
VSB - VISIBILITY IN MILES
WCI - WIND CHILL INDEX
HX  - HEAT INDEX

$$


USA.gov is the U.S. government's official web portal to all federal, state and local government web resources and services.